Copper Mountain, CO

10:01 PM MDT on April 20, 2018 (GMT -0600)
Copper Mountain

Weather History for KCCU - August, 2013

Change the Weather History Date:

Friday, August 16, 2013

  Actual Average Record
Temperature  
Mean Temperature 60 °F -  
Max Temperature 68 °F - 68 °F (2011)
Min Temperature 53 °F - 30 °F (2008)
Degree Days  
Heating Degree Days 4    
Month to date heating degree days  
Cooling Degree Days 0    
Month to date cooling degree days  
Growing Degree Days 10 (Base 50)    
Moisture  
Dew Point 17 °F    
Average Humidity 20    
Maximum Humidity 26    
Minimum Humidity 12    
Precipitation  
Precipitation 0.00 in - 0.43 in (2003)
Sea Level Pressure  
Sea Level Pressure 30.73 in    
Wind  
Wind Speed 9 mph (West)    
Max Wind Speed 24 mph    
Max Gust Speed 29 mph    
Visibility 10 miles    
Events      
T = Trace of Precipitation, MM = Missing Value Source: NWS Daily Summary

Daily Weather History Graph

Daily Weather History Graph

Search for Another Location

Airport or City:

Astronomy

Aug. 16, 2013 Rise Set
Actual Time 6:18 AM MDT 7:58 PM MDT
Civil Twilight 5:49 AM MDT 8:27 PM MDT
Nautical Twilight 5:15 AM MDT 9:01 PM MDT
Astronomical Twilight 4:38 AM MDT 9:38 PM MDT
Moon 4:19 PM MDT (8/16) 1:24 AM MDT (8/16)
Length of Visible Light 14h 37m
Length of Day
13h 40m
Waxing Gibbous, 75% of the Moon is Illuminated
Aug 16
Waxing Gibbous
Aug 20
Full
Aug 28
Last Quarter
Sep 5
New
Sep 12
First Quarter

Hourly Weather History & Observations

Time (MDT) Temp. Dew Point Humidity Pressure Visibility Wind Dir Wind Speed Gust Speed Precip Events Conditions
12:14 AM 55.4 °F 10.4 °F 17% 30.72 in 10.0 mi Calm Calm - N/A   Clear
12:34 AM 55.4 °F 12.2 °F 18% 30.72 in 10.0 mi West 8.1 mph - N/A   Clear
12:54 AM 55.4 °F 10.4 °F 17% 30.72 in 10.0 mi West 4.6 mph - N/A   Clear
1:14 AM 55.4 °F 10.4 °F 17% 30.72 in 10.0 mi WSW 3.5 mph - N/A   Clear
1:34 AM 55.4 °F 10.4 °F 17% 30.72 in 10.0 mi SW 3.5 mph - N/A   Clear
1:54 AM 53.6 °F 12.2 °F 19% 30.71 in 10.0 mi WSW 4.6 mph - N/A   Clear
2:14 AM 53.6 °F 12.2 °F 19% 30.71 in 10.0 mi West 12.7 mph - N/A   Clear
2:34 AM 53.6 °F 14.0 °F 21% 30.71 in 10.0 mi WSW 6.9 mph - N/A   Clear
2:54 AM 53.6 °F 14.0 °F 21% 30.71 in 10.0 mi WSW 5.8 mph - N/A   Clear
3:14 AM 53.6 °F 14.0 °F 21% 30.71 in 10.0 mi WSW 6.9 mph - N/A   Clear
3:34 AM 53.6 °F 14.0 °F 21% 30.71 in 10.0 mi WSW 6.9 mph - N/A   Clear
3:54 AM 53.6 °F 14.0 °F 21% 30.71 in 10.0 mi West 6.9 mph - N/A   Clear
4:14 AM 53.6 °F 14.0 °F 21% 30.71 in 10.0 mi West 9.2 mph - N/A   Clear
4:34 AM 53.6 °F 14.0 °F 21% 30.70 in 10.0 mi West 9.2 mph - N/A   Clear
4:54 AM 53.6 °F 15.8 °F 22% 30.71 in 10.0 mi WSW 8.1 mph - N/A   Clear
5:14 AM 53.6 °F 15.8 °F 22% 30.71 in 10.0 mi WSW 8.1 mph - N/A   Clear
5:34 AM 53.6 °F 15.8 °F 22% 30.71 in 10.0 mi WSW 9.2 mph - N/A   Clear
5:54 AM 53.6 °F 15.8 °F 22% 30.71 in 10.0 mi WSW 10.4 mph - N/A   Clear
6:14 AM 53.6 °F 17.6 °F 24% 30.72 in 10.0 mi WSW 8.1 mph - N/A   Clear
6:34 AM 53.6 °F 17.6 °F 24% 30.72 in 10.0 mi WSW 8.1 mph - N/A   Clear
6:54 AM 53.6 °F 17.6 °F 24% 30.72 in 10.0 mi West 8.1 mph - N/A   Clear
7:14 AM 53.6 °F 19.4 °F 26% 30.73 in 10.0 mi WSW 6.9 mph - N/A   Clear
7:34 AM 53.6 °F 19.4 °F 26% 30.73 in 10.0 mi WSW 8.1 mph - N/A   Clear
7:54 AM 53.6 °F 19.4 °F 26% 30.74 in 10.0 mi West 9.2 mph - N/A   Clear
8:14 AM 55.4 °F 21.2 °F 26% 30.74 in 10.0 mi West 11.5 mph - N/A   Clear
8:34 AM 55.4 °F 19.4 °F 25% 30.74 in 10.0 mi West 12.7 mph - N/A   Clear
8:54 AM 59.0 °F 23.0 °F 25% 30.75 in 10.0 mi West 10.4 mph - N/A   Clear
9:14 AM 59.0 °F 21.2 °F 23% 30.75 in 10.0 mi West 12.7 mph - N/A   Clear
9:34 AM 59.0 °F 19.4 °F 22% 30.75 in 10.0 mi West 15.0 mph - N/A   Clear
9:54 AM 59.0 °F 21.2 °F 23% 30.75 in 10.0 mi West 16.1 mph 21.9 mph N/A   Clear
10:14 AM 59.0 °F 17.6 °F 20% 30.75 in 10.0 mi WNW 10.4 mph 21.9 mph N/A   Clear
10:34 AM 59.0 °F 15.8 °F 19% 30.75 in 10.0 mi West 9.2 mph 24.2 mph N/A   Clear
10:54 AM 60.8 °F 19.4 °F 20% 30.76 in 10.0 mi West 17.3 mph 23.0 mph N/A   Mostly Cloudy
11:14 AM 60.8 °F 19.4 °F 20% 30.76 in 10.0 mi West 15.0 mph 25.3 mph N/A   Overcast
11:34 AM 60.8 °F 17.6 °F 19% 30.76 in 10.0 mi West 17.3 mph 21.9 mph N/A   Overcast
11:54 AM 60.8 °F 17.6 °F 19% 30.76 in 10.0 mi West 11.5 mph 20.7 mph N/A   Mostly Cloudy
12:14 PM 60.8 °F 17.6 °F 19% 30.76 in 10.0 mi West 19.6 mph 25.3 mph N/A   Mostly Cloudy
12:34 PM 60.8 °F 17.6 °F 19% 30.75 in 10.0 mi West 17.3 mph 23.0 mph N/A   Mostly Cloudy
12:54 PM 60.8 °F 19.4 °F 20% 30.75 in 10.0 mi West 18.4 mph 24.2 mph N/A   Overcast
1:14 PM 64.4 °F 14.0 °F 14% 30.75 in 10.0 mi West 16.1 mph 21.9 mph N/A   Scattered Clouds
1:34 PM 64.4 °F 17.6 °F 16% 30.74 in 10.0 mi West 24.2 mph 27.6 mph N/A   Scattered Clouds
1:54 PM 60.8 °F 14.0 °F 16% 30.75 in 10.0 mi West 12.7 mph - N/A   Scattered Clouds
2:14 PM 62.6 °F 14.0 °F 15% 30.75 in 10.0 mi West 18.4 mph 26.5 mph N/A   Mostly Cloudy
2:34 PM 62.6 °F 14.0 °F 15% 30.74 in 10.0 mi WNW 19.6 mph 25.3 mph N/A   Mostly Cloudy
2:54 PM 62.6 °F 14.0 °F 15% 30.75 in 10.0 mi West 16.1 mph 28.8 mph N/A   Mostly Cloudy
3:14 PM 64.4 °F 14.0 °F 14% 30.74 in 10.0 mi WNW 18.4 mph 24.2 mph N/A   Mostly Cloudy
3:34 PM 64.4 °F 14.0 °F 14% 30.74 in 10.0 mi West 13.8 mph 24.2 mph N/A   Scattered Clouds
3:54 PM 66.2 °F 12.2 °F 12% 30.73 in 10.0 mi WNW 18.4 mph 24.2 mph N/A   Scattered Clouds
4:14 PM 64.4 °F 12.2 °F 13% 30.73 in 10.0 mi West 15.0 mph 18.4 mph N/A   Scattered Clouds
4:34 PM 62.6 °F 14.0 °F 15% 30.73 in 10.0 mi WNW 18.4 mph 23.0 mph N/A   Mostly Cloudy
4:54 PM 64.4 °F 14.0 °F 14% 30.73 in 10.0 mi West 20.7 mph 25.3 mph N/A   Scattered Clouds
5:14 PM 64.4 °F 14.0 °F 14% 30.72 in 10.0 mi WNW 18.4 mph 23.0 mph N/A   Scattered Clouds
5:34 PM 62.6 °F 15.8 °F 16% 30.73 in 10.0 mi West 12.7 mph - N/A   Scattered Clouds
5:54 PM 68.0 °F 17.6 °F 15% 30.72 in 10.0 mi WNW 6.9 mph - N/A   Overcast
6:14 PM 68.0 °F 17.6 °F 15% 30.72 in 10.0 mi WNW 10.4 mph 19.6 mph N/A   Mostly Cloudy
6:34 PM 64.4 °F 19.4 °F 18% 30.72 in 10.0 mi West 17.3 mph 23.0 mph N/A   Mostly Cloudy
6:54 PM 60.8 °F 19.4 °F 20% 30.72 in 10.0 mi West 19.6 mph - N/A   Scattered Clouds
7:14 PM 60.8 °F 17.6 °F 19% 30.73 in 10.0 mi West 18.4 mph 24.2 mph N/A   Clear
7:34 PM 60.8 °F 19.4 °F 20% 30.73 in 10.0 mi West 16.1 mph 19.6 mph N/A   Clear
7:54 PM 59.0 °F 19.4 °F 22% 30.74 in 10.0 mi West 6.9 mph - N/A   Scattered Clouds
8:14 PM 59.0 °F 19.4 °F 22% 30.74 in 10.0 mi West 6.9 mph - N/A   Mostly Cloudy
8:34 PM 59.0 °F 17.6 °F 20% 30.74 in 10.0 mi West 6.9 mph - N/A   Mostly Cloudy
8:54 PM 59.0 °F 17.6 °F 20% 30.75 in 10.0 mi West 9.2 mph - N/A   Scattered Clouds
9:14 PM 59.0 °F 17.6 °F 20% 30.75 in 10.0 mi West 9.2 mph - N/A   Scattered Clouds
9:34 PM 59.0 °F 17.6 °F 20% 30.75 in 10.0 mi West 9.2 mph - N/A   Clear
9:54 PM 59.0 °F 19.4 °F 22% 30.75 in 10.0 mi WNW 5.8 mph - N/A   Mostly Cloudy
10:14 PM 59.0 °F 19.4 °F 22% 30.75 in 10.0 mi West 5.8 mph - N/A   Scattered Clouds
10:34 PM 59.0 °F 21.2 °F 23% 30.75 in 10.0 mi West 4.6 mph - N/A   Clear
10:54 PM 59.0 °F 21.2 °F 23% 30.75 in 10.0 mi South 5.8 mph - N/A   Scattered Clouds
11:14 PM 55.4 °F 19.4 °F 25% 30.75 in 10.0 mi SSE 12.7 mph - N/A   Scattered Clouds
11:34 PM 59.0 °F 21.2 °F 23% 30.75 in 10.0 mi South 13.8 mph - N/A   Mostly Cloudy
11:54 PM 59.0 °F 23.0 °F 25% 30.75 in 10.0 mi South 12.7 mph - N/A   Scattered Clouds